Weather History for KGOV - April, 2013

Change the Weather History Date:

Friday, April 26, 2013

  Actual Average (KHTL) Record (KHTL)
Temperature  
Mean Temperature 40 °F 47 °F  
Max Temperature 60 °F 59 °F 86 °F (1948)
Min Temperature 21 °F 35 °F 16 °F (1933)
Degree Days  
Heating Degree Days 24 18  
Month to date heating degree days 607  
Since 1 July heating degree days 7592  
Cooling Degree Days 0 0  
Month to date cooling degree days 0  
Year to date cooling degree days 0  
Moisture  
Dew Point 28 °F    
Average Humidity 57    
Maximum Humidity 95    
Minimum Humidity 31    
Precipitation  
Precipitation 0.00 in 0.08 in 1.05 in (2011)
Month to date precipitation 2.16  
Year to date precipitation 6.72  
Snow  
Snow 0.00 in 0.00 in 3.00 in (1966)
Month to date snowfall 3.6  
Since 1 July snowfall 66.4  
Snow Depth -    
Sea Level Pressure  
Sea Level Pressure 30.28 in    
Wind  
Wind Speed 4 mph (SSW)    
Max Wind Speed 16 mph    
Max Gust Speed 26 mph    
Visibility 10 miles    
Events      
T = Trace of Precipitation, MM = Missing Value Source: NWS Daily Summary

Daily Weather History Graph

Daily Weather History Graph

Search for Another Location

Airport or City:

Trip Planner

Search our weather history database for the weather conditions in past years. The results will help you decide how hot, cold, wet, or windy it might be!

Date:

Astronomy

Apr. 26, 2013 Rise Set
Actual Time 6:36 AM EDT 8:37 PM EDT
Civil Twilight 6:04 AM EDT 9:09 PM EDT
Nautical Twilight 5:25 AM EDT 9:48 PM EDT
Astronomical Twilight 4:43 AM EDT 10:31 PM EDT
Moon 10:03 PM EDT (4/26) 7:00 AM EDT (4/26)
Length of Visible Light 15h 05m
Length of Day
14h 01m
Full, 99% of the Moon is Illuminated
Apr 26
Full
May 2
Last Quarter
May 9
New
May 18
First Quarter
May 25
Full

Hourly Weather History & Observations

Time (EDT) Temp. Windchill Dew Point Humidity Pressure Visibility Wind Dir Wind Speed Gust Speed Precip Events Conditions
12:15 AM 26.1 °F - 23.0 °F 88% 30.28 in 10.0 mi Calm Calm - N/A   Clear
12:34 AM 24.3 °F - 22.1 °F 91% 30.28 in 10.0 mi Calm Calm - N/A   Clear
12:55 AM 26.1 °F - 23.4 °F 90% 30.29 in 10.0 mi Calm Calm - N/A   Clear
1:15 AM 25.2 °F - 22.8 °F 91% 30.30 in 10.0 mi Calm Calm - N/A   Clear
1:34 AM 23.7 °F - 21.2 °F 90% 30.30 in 10.0 mi Calm Calm - N/A   Clear
1:55 AM 23.5 °F - 21.4 °F 91% 30.30 in 10.0 mi Calm Calm - N/A   Clear
2:15 AM 27.5 °F 21.1 °F 23.9 °F 86% 30.31 in 10.0 mi SW 5.8 mph - N/A   Clear
2:35 AM 30.6 °F 25.8 °F 23.7 °F 76% 30.30 in 10.0 mi SW 4.6 mph - N/A   Clear
3:15 AM 33.3 °F 28.9 °F 26.2 °F 75% 30.30 in 10.0 mi WSW 4.6 mph - N/A   Clear
3:35 AM 33.3 °F 28.9 °F 26.2 °F 75% 30.30 in 10.0 mi SW 4.6 mph - N/A   Clear
3:55 AM 33.3 °F 28.9 °F 26.4 °F 76% 30.30 in 10.0 mi SW 4.6 mph - N/A   Clear
4:15 AM 29.7 °F - 22.5 °F 75% 30.31 in 10.0 mi Calm Calm - N/A   Clear
4:35 AM 22.3 °F - 20.1 °F 91% 30.31 in 10.0 mi Calm Calm - N/A   Clear
4:55 AM 23.4 °F - 21.2 °F 91% 30.31 in 10.0 mi Calm Calm - N/A   Clear
5:15 AM 22.3 °F - 20.7 °F 93% 30.31 in 10.0 mi Calm Calm - N/A   Clear
5:35 AM 21.2 °F - 19.2 °F 92% 30.31 in 10.0 mi Calm Calm - N/A   Clear
5:55 AM 22.1 °F - 20.3 °F 93% 30.32 in 10.0 mi Calm Calm - N/A   Clear
6:15 AM 23.2 °F - 21.6 °F 94% 30.32 in 10.0 mi Calm Calm - N/A   Clear
6:35 AM 22.1 °F - 19.9 °F 91% 30.32 in 10.0 mi Calm Calm - N/A   Clear
6:55 AM 23.4 °F - 21.7 °F 94% 30.32 in 10.0 mi Calm Calm - N/A   Clear
7:14 AM 25.5 °F - 23.9 °F 94% 30.33 in 10.0 mi Calm Calm - N/A   Clear
7:35 AM 28.4 °F - 26.6 °F 93% 30.33 in 10.0 mi Calm Calm - N/A   Clear
7:55 AM 28.4 °F - 27.1 °F 95% 30.33 in 10.0 mi Calm Calm - N/A   Clear
8:14 AM 31.1 °F - 29.8 °F 95% 30.34 in 10.0 mi Calm Calm - N/A   Clear
8:35 AM 35.8 °F - 32.0 °F 86% 30.34 in 10.0 mi Calm Calm - N/A   Clear
8:55 AM 38.3 °F - 30.4 °F 73% 30.35 in 10.0 mi Calm Calm - N/A   Clear
9:14 AM 41.2 °F 39.2 °F 30.6 °F 66% 30.35 in 10.0 mi SW 3.5 mph - N/A   Clear
9:35 AM 44.2 °F 41.8 °F 30.4 °F 58% 30.35 in 10.0 mi SW 4.6 mph - N/A   Clear
9:55 AM 47.8 °F - 31.3 °F 53% 30.34 in 10.0 mi SW 4.6 mph - N/A   Clear
10:15 AM 48.4 °F - 30.0 °F 49% 30.35 in 10.0 mi South 9.2 mph - N/A   Scattered Clouds
10:35 AM 48.4 °F - 28.8 °F 47% 30.35 in 10.0 mi SSW 12.7 mph 18.4 mph N/A   Scattered Clouds
10:55 AM 48.9 °F - 29.1 °F 46% 30.34 in 10.0 mi SW 12.7 mph 19.6 mph N/A   Scattered Clouds
11:15 AM 48.4 °F - 27.1 °F 44% 30.35 in 10.0 mi SSW 13.8 mph 23.0 mph N/A   Mostly Cloudy
11:35 AM 50.5 °F - 28.6 °F 43% 30.35 in 10.0 mi SW 13.8 mph 19.6 mph N/A   Mostly Cloudy
11:55 AM 49.5 °F - 27.9 °F 43% 30.35 in 10.0 mi SSW 8.1 mph - N/A   Overcast
12:15 PM 49.3 °F - 26.8 °F 42% 30.34 in 10.0 mi SSW 6.9 mph - N/A   Overcast
12:35 PM 51.8 °F - 28.0 °F 40% 30.33 in 10.0 mi SSW 8.1 mph - N/A   Overcast
12:54 PM 50.7 °F - 27.1 °F 40% 30.33 in 10.0 mi South 10.4 mph 16.1 mph N/A   Overcast
1:15 PM 52.9 °F - 29.1 °F 40% 30.31 in 10.0 mi South 10.4 mph 17.3 mph N/A   Overcast
1:35 PM 54.7 °F - 28.9 °F 37% 30.30 in 10.0 mi South 9.2 mph 20.7 mph N/A   Mostly Cloudy
1:55 PM 54.7 °F - 28.0 °F 36% 30.29 in 10.0 mi SSE 15.0 mph 19.6 mph N/A   Mostly Cloudy
2:15 PM 56.3 °F - 29.1 °F 35% 30.29 in 10.0 mi SSE 13.8 mph 19.6 mph N/A   Mostly Cloudy
2:35 PM 55.9 °F - 29.3 °F 36% 30.28 in 10.0 mi South 15.0 mph 20.7 mph N/A   Scattered Clouds
2:55 PM 57.0 °F - 30.6 °F 37% 30.27 in 10.0 mi South 11.5 mph 19.6 mph N/A   Clear
3:15 PM 57.4 °F - 30.6 °F 36% 30.27 in 10.0 mi South 12.7 mph 24.2 mph N/A   Clear
3:34 PM 58.5 °F - 30.7 °F 35% 30.26 in 10.0 mi South 15.0 mph 23.0 mph N/A   Clear
3:55 PM 58.5 °F - 30.7 °F 35% 30.26 in 10.0 mi South 15.0 mph 19.6 mph N/A   Scattered Clouds
4:15 PM 58.6 °F - 30.6 °F 34% 30.24 in 10.0 mi South 9.2 mph 21.9 mph N/A   Mostly Cloudy
4:34 PM 60.1 °F - 29.7 °F 32% 30.23 in 10.0 mi SW 11.5 mph 26.5 mph N/A   Scattered Clouds
4:55 PM 60.1 °F - 29.8 °F 32% 30.23 in 10.0 mi SSE 16.1 mph 19.6 mph N/A   Clear
5:15 PM 59.9 °F - 29.1 °F 31% 30.22 in 10.0 mi SSW 15.0 mph 23.0 mph N/A   Clear
5:34 PM 59.7 °F - 29.1 °F 31% 30.21 in 10.0 mi SSW 11.5 mph 24.2 mph N/A   Clear
5:55 PM 59.9 °F - 29.7 °F 32% 30.21 in 10.0 mi SSW 9.2 mph 20.7 mph N/A   Clear
6:15 PM 59.5 °F - 29.5 °F 32% 30.21 in 10.0 mi South 11.5 mph 25.3 mph N/A   Scattered Clouds
6:34 PM 59.9 °F - 29.3 °F 31% 30.21 in 10.0 mi South 16.1 mph 20.7 mph N/A   Scattered Clouds
6:55 PM 58.8 °F - 29.7 °F 33% 30.21 in 10.0 mi South 11.5 mph 16.1 mph N/A   Clear
7:15 PM 59.0 °F - 30.0 °F 33% 30.21 in 10.0 mi South 11.5 mph 16.1 mph N/A   Scattered Clouds
7:35 PM 58.5 °F - 30.4 °F 34% 30.20 in 10.0 mi South 9.2 mph - N/A   Scattered Clouds
7:55 PM 58.5 °F - 31.3 °F 36% 30.20 in 10.0 mi South 9.2 mph 19.6 mph N/A   Scattered Clouds
8:15 PM 56.3 °F - 31.1 °F 38% 30.20 in 10.0 mi South 9.2 mph - N/A   Mostly Cloudy
8:35 PM 56.3 °F - 31.6 °F 39% 30.20 in 10.0 mi South 4.6 mph - N/A   Overcast
8:55 PM 55.9 °F - 32.0 °F 40% 30.21 in 10.0 mi South 3.5 mph - N/A   Overcast
9:15 PM 55.9 °F - 32.0 °F 40% 30.22 in 10.0 mi South 4.6 mph - N/A   Overcast
9:35 PM 56.3 °F - 32.2 °F 40% 30.22 in 10.0 mi South 5.8 mph - N/A   Overcast
9:55 PM 56.3 °F - 32.4 °F 40% 30.23 in 10.0 mi South 8.1 mph - N/A   Overcast
10:14 PM 55.9 °F - 32.5 °F 41% 30.23 in 10.0 mi South 6.9 mph - N/A   Overcast
10:35 PM 55.9 °F - 32.9 °F 42% 30.23 in 10.0 mi South 6.9 mph - N/A   Overcast
10:55 PM 55.9 °F - 33.4 °F 43% 30.23 in 10.0 mi SSW 6.9 mph - N/A   Overcast
11:14 PM 55.9 °F - 34.2 °F 44% 30.23 in 10.0 mi South 6.9 mph - N/A   Overcast
11:35 PM 54.1 °F - 34.3 °F 47% 30.23 in 10.0 mi SSE 3.5 mph - N/A   Overcast
11:55 PM 54.0 °F - 34.7 °F 48% 30.23 in 10.0 mi Calm Calm - N/A   Overcast